SCP
0 0 0 0 0 0 0 0 0 0 0 0 0 1 1 3 5 7 9 11 12 12 12 13 15 15 13 9 6 6 6 5 5 4 3 3 2 2 2 2 2 2 2 2
0 0 0 0 0 0 0 0 0 0 0 0 0 1 2 3 5 7 9 11 12 12 12 12 14 14 12 9 6 6 5 5 5 4 4 3 3 2 2 2 2 2 2 2
0 0 0 0 0 0 0 0 0 0 0 0 0 1 2 3 5 7 8 10 11 12 12 12 12 12 10 8 7 6 6 5 5 5 4 4 3 3 2 2 2 2 1 1
0 0 0 0 0 0 0 0 0 0 0 0 0 0 1 2 4 6 7 9 10 11 12 11 10 10 10 9 9 7 6 6 5 5 5 4 3 3 2 2 2 2 2 2
0 0 0 0 0 0 0 0 0 0 0 0 0 0 0 2 3 5 6 7 8 9 10 10 9 9 10 11 10 8 7 6 4 4 4 4 3 3 2 2 2 2 2 2
0 0 0 0 0 0 0 0 0 0 0 0 0 0 0 1 3 4 5 6 6 7 8 8 7 7 8 9 8 8 7 6 4 3 3 3 3 2 2 2 2 2 1 1
0 0 0 0 0 0 0 0 0 0 0 0 0 0 1 1 2 3 4 5 5 5 5 5 5 5 5 6 6 6 6 5 3 2 2 2 2 2 2 2 2 1 1 1
0 0 0 0 0 0 0 0 0 0 0 0 0 0 1 1 1 2 2 3 3 3 3 3 3 4 4 4 4 4 4 3 2 2 2 2 2 2 2 2 1 1 1 1
0 0 0 0 0 0 0 0 0 0 0 0 0 0 1 1 1 1 1 2 2 2 2 2 2 3 3 4 3 3 2 2 2 2 2 2 1 1 1 1 1 1 0 0
0 0 0 0 0 0 0 0 0 0 0 0 0 0 0 1 1 1 1 1 2 2 1 1 2 2 2 2 2 2 2 2 1 1 1 1 1 1 1 0 0 0 0 0
0 0 0 0 0 0 0 0 0 0 0 0 0 0 0 0 0 0 1 1 1 1 1 1 1 1 1 1 1 1 1 1 1 1 1 1 1 0 0 0 0 0 0 0
0 0 0 0 0 0 0 0 0 0 0 0 0 0 0 0 0 1 1 1 1 1 1 1 1 0 0 0 0 0 1 1 1 0 0 1 0 0 0 0 0 0 0 0
0 0 0 0 0 0 0 0 0 0 0 0 0 0 0 0 0 1 1 1 1 1 1 1 0 0 0 0 0 0 0 0 0 0 0 0 0 0 0 0 0 0 0 0
0 0 0 0 0 0 0 0 0 0 0 0 0 0 0 0 0 1 1 1 1 1 1 1 0 0 0 0 0 0 0 0 0 0 0 0 0 0 0 0 0 0 0 0
0 0 0 0 0 0 0 0 0 0 0 0 0 0 0 0 0 1 1 1 1 1 1 1 0 0 0 0 0 0 0 0 0 0 0 0 0 0 0 0 0 0 0 0
0 0 0 0 0 0 0 0 0 0 0 0 0 0 0 0 0 0 0 0 1 1 0 0 0 0 0 0 0 0 0 0 0 0 0 0 0 0 0 0 0 0 0 0
0 0 0 0 0 0 0 0 0 0 0 0 0 0 0 0 0 0 0 0 0 0 0 0 0 0 0 0 0 0 0 0 0 0 0 0 0 0 0 0 0 0 0 0
0 0 0 0 0 0 0 0 0 0 0 0 0 0 0 0 0 0 0 0 0 0 0 0 0 0 0 0 0 0 0 0 0 0 0 0 0 0 0 0 0 0 0 0
0 0 0 0 0 0 0 0 0 0 0 0 0 0 0 0 0 0 0 0 0 0 0 0 0 0 0 0 0 0 0 0 0 0 0 0 0 0 0 0 0 0 0 0
0 0 0 0 0 0 0 0 0 0 0 0 0 0 0 0 0 0 0 0 0 0 0 0 0 0 0 0 0 0 0 0 0 0 0 0 0 0 0 0 0 0 0 0
0 0 0 0 0 0 0 0 0 0 0 0 0 0 0 0 0 0 0 0 0 0 0 0 0 0 0 0 0 0 0 0 0 0 0 0 0 0 0 0 0 0 0 0
0 0 0 0 0 0 0 0 0 0 0 0 0 0 0 0 0 0 0 0 0 0 0 0 0 0 0 0 0 0 0 0 0 0 0 0 0 0 0 0 0 0 0 0
0 0 0 0 0 0 0 0 0 0 0 0 0 0 0 0 0 0 0 0 0 0 0 0 0 0 0 0 0 0 0 0 0 0 0 0 0 0 0 0 0 0 0 0
0 0 0 0 0 0 0 0 0 0 0 0 0 0 0 0 0 0 0 0 0 0 0 0 0 0 0 0 0 0 0 0 0 0 0 0 0 0 0 0 0 0 0 0
0 0 0 0 0 0 0 0 0 0 0 0 0 0 0 0 0 0 0 0 0 0 0 0 0 0 0 0 0 0 0 0 0 0 0 0 0 0 0 0 0 0 0 0
0 0 0 0 0 0 0 0 0 0 0 0 0 0 0 0 0 0 0 0 0 0 0 0 0 0 0 0 0 0 0 0 0 0 0 0 0 0 0 0 0 0 0 0
Wind_Speed
2 2 4 9 9 9 7 6 6 8 6 5 7 10 12 7 10 12 12 12 12 10 7 8 8 7 6 6 8 9 8 8 7 4 4 3 3 3 2 2 3 3 3 4
2 5 13 11 8 6 4 3 5 7 8 6 6 6 3 3 6 11 15 15 15 12 9 9 8 8 9 8 8 7 6 6 7 6 5 3 3 3 3 2 2 3 3 4
6 8 7 3 2 2 4 3 4 6 8 7 6 9 6 3 3 4 5 8 9 12 12 9 8 6 5 7 7 6 5 5 5 5 3 2 2 1 1 1 2 3 4 4
3 3 4 3 3 3 4 5 4 5 6 5 5 4 8 4 3 5 6 7 7 6 6 5 5 5 4 4 4 5 4 3 2 3 3 4 3 3 2 2 1 2 2 3
4 5 4 3 3 3 3 2 3 3 3 4 4 1 8 6 4 3 6 9 9 8 6 5 4 3 4 5 5 5 5 4 3 3 3 3 2 1 1 0 1 1 1 1
5 5 3 3 4 3 2 5 8 6 5 3 4 2 7 3 4 1 5 8 8 8 7 6 5 4 3 4 5 4 5 4 4 4 4 4 4 3 3 3 2 2 2 2
6 6 5 2 2 5 6 7 6 7 5 5 5 3 5 2 5 2 6 6 5 5 4 3 3 2 1 2 3 4 5 4 4 5 5 5 5 5 4 3 3 2 2 2
2 6 4 3 1 0 1 6 5 3 4 5 5 5 2 4 5 6 5 4 3 2 2 2 2 2 1 2 2 4 5 5 5 5 5 5 5 4 3 4 3 2 1 1
2 3 4 5 4 2 2 2 4 5 1 3 5 4 3 3 3 3 2 2 1 1 0 1 2 3 3 3 3 4 5 5 5 5 5 5 5 5 4 4 3 2 1 1
3 1 3 4 6 6 5 5 6 5 1 4 5 5 4 3 2 2 2 2 2 2 2 2 1 3 3 3 3 4 5 5 4 4 4 5 5 5 4 4 4 3 3 3
4 2 4 3 1 1 2 4 6 4 4 3 4 7 6 6 5 5 6 5 4 3 2 2 1 1 3 3 3 3 4 4 4 4 5 5 4 4 5 4 3 3 2 3
4 6 1 4 3 2 5 6 7 5 5 5 4 10 7 5 6 6 7 7 5 4 3 1 1 1 2 2 2 2 3 3 3 4 5 5 5 5 4 3 3 3 3 3
6 7 3 8 7 3 2 3 4 5 5 5 5 11 4 4 5 5 7 7 6 5 4 3 2 2 2 2 2 2 2 2 2 3 5 5 5 4 3 2 2 3 3 4
7 6 7 7 8 5 5 4 4 6 5 6 9 11 7 6 6 6 5 5 5 4 4 3 2 1 1 2 2 2 1 1 2 3 4 4 4 4 3 2 2 3 3 4
6 4 5 7 7 6 7 9 6 7 9 9 9 8 9 6 6 6 6 5 4 4 4 3 3 1 1 1 2 2 1 2 3 4 4 3 3 3 3 2 2 3 4 4
4 4 2 3 5 6 9 10 7 7 6 6 5 6 6 3 2 3 5 6 6 5 4 4 3 2 2 1 1 2 1 1 3 4 4 3 4 4 3 3 3 4 4 4
4 5 3 4 5 5 8 8 7 5 5 6 7 7 4 3 4 5 5 6 6 5 4 4 3 2 2 1 1 1 0 1 3 4 3 4 4 4 4 4 4 4 3 3
7 6 4 2 2 5 10 7 6 6 4 5 5 5 7 7 5 5 6 7 6 5 5 4 4 3 2 2 2 2 2 2 3 4 4 4 4 4 3 4 4 3 2 3
8 8 5 3 3 7 7 4 5 5 3 4 6 6 7 5 2 2 5 7 7 6 5 5 4 4 3 3 3 3 2 3 4 4 4 4 4 4 3 3 2 1 2 3
5 6 5 4 4 7 9 5 4 5 3 3 6 7 7 7 3 7 7 7 6 5 4 4 4 3 3 3 3 4 4 4 4 4 4 4 4 3 3 2 1 1 2 3
2 1 3 4 5 8 7 4 5 3 8 5 6 6 7 10 10 7 7 8 7 6 6 5 4 3 4 4 4 4 4 5 5 5 5 4 3 2 2 1 1 2 2 3
6 4 3 3 4 9 6 4 7 10 7 7 7 6 7 8 6 7 9 9 8 7 6 6 4 4 4 4 5 5 5 5 5 5 5 4 3 1 2 2 1 2 3 4
4 7 6 6 8 8 6 7 8 8 8 9 8 7 8 9 9 9 9 9 8 8 6 5 6 5 4 4 6 6 5 5 6 5 5 4 3 2 2 2 2 2 3 3
5 3 3 4 7 6 7 7 6 8 10 11 10 8 10 11 12 11 10 9 8 7 6 5 6 6 5 5 5 6 6 6 6 6 5 4 3 2 2 2 2 2 3 3
7 4 4 6 8 7 5 6 7 8 9 9 9 9 12 13 12 12 11 10 8 7 6 6 7 7 6 6 6 6 6 6 6 5 4 4 3 3 2 2 1 2 2 4
7 8 7 9 9 7 7 7 6 7 9 11 11 10 9 12 13 13 12 11 9 8 7 7 7 7 7 7 6 6 6 7 6 5 4 3 3 3 3 3 1 2 1 3
Wind_Direction
229 111 232 234 220 219 249 272 281 278 290 314 293 266 252 216 175 172 170 164 156 155 146 143 159 174 192 202 201 188 182 183 176 171 179 186 207 221 231 224 206 191 190 186
359 255 243 240 243 241 260 283 301 305 317 335 325 324 303 149 161 165 165 166 162 153 148 155 159 171 188 194 199 189 183 184 182 182 181 183 185 206 218 223 218 205 195 192
214 250 263 243 254 319 318 308 303 308 329 359 8 341 346 3 64 99 136 150 155 156 154 154 155 163 168 174 181 176 180 191 186 176 158 144 139 147 197 230 234 228 212 209
281 295 345 359 331 331 305 306 336 360 18 331 31 321 303 323 33 59 67 70 76 86 99 112 122 124 127 136 133 127 148 156 161 155 155 165 174 192 214 221 232 253 234 230
303 318 342 332 298 321 272 308 9 5 33 358 10 2 292 357 5 25 60 66 63 63 65 64 70 98 105 100 104 111 116 107 103 116 135 137 137 161 155 66 44 1 339 301
272 283 275 270 294 311 346 19 14 29 52 346 288 273 277 331 312 321 85 77 72 68 61 48 33 31 60 91 98 103 107 103 97 101 103 110 119 113 94 73 60 38 24 11
324 318 309 299 325 349 43 62 19 355 2 268 300 301 262 357 1 82 111 93 80 71 70 61 49 33 36 115 128 125 117 105 98 96 93 97 103 101 96 91 78 63 41 19
264 297 321 16 35 295 31 120 149 217 243 281 319 277 305 53 45 63 79 82 74 72 83 92 87 66 51 78 110 118 108 105 102 100 96 93 92 91 87 82 84 74 60 23
199 269 329 11 16 80 76 72 153 144 284 284 279 302 42 40 33 39 45 42 10 302 237 120 92 83 63 68 84 96 101 96 92 98 99 93 92 93 90 83 78 71 46 16
147 270 326 358 30 31 101 121 75 84 39 288 292 308 284 284 266 246 241 243 264 293 311 329 26 69 73 64 64 79 91 97 95 101 111 109 104 100 94 83 68 52 27 17
90 119 319 8 35 244 87 73 95 110 156 196 261 263 232 221 217 215 217 221 225 252 278 303 345 35 73 72 63 74 88 94 95 97 100 103 102 95 85 76 62 48 30 18
114 114 259 283 280 146 129 151 147 155 216 198 217 263 257 213 216 209 212 217 217 223 222 221 174 101 80 80 84 84 86 93 102 110 107 106 102 97 86 74 57 46 32 17
119 101 42 345 346 0 86 175 163 138 138 175 202 264 268 229 236 228 215 212 212 200 200 187 155 127 110 97 82 79 75 85 95 110 113 107 106 104 102 85 56 39 31 26
108 121 160 199 228 253 277 253 185 142 168 211 227 252 277 260 249 245 227 217 214 192 175 164 147 143 114 83 76 75 65 68 90 107 117 120 124 126 123 99 57 39 44 50
100 157 209 221 242 259 274 275 223 202 198 201 233 237 254 252 241 230 211 197 190 182 174 170 162 164 104 65 54 71 69 73 92 103 107 117 116 111 107 84 55 48 54 64
111 165 199 276 270 286 290 280 239 212 202 213 232 253 240 238 227 207 193 188 191 185 179 170 168 173 161 115 76 71 79 82 101 107 111 106 94 90 87 83 69 62 58 62
164 146 144 258 280 315 279 244 211 201 197 191 217 235 213 224 227 211 197 192 193 187 180 182 184 185 190 200 159 153 147 98 105 108 106 103 99 92 83 81 73 69 63 72
163 146 152 217 331 253 250 246 190 181 199 190 192 197 191 206 216 208 191 184 188 188 185 186 188 193 208 218 211 197 161 130 119 116 112 112 109 103 94 85 78 70 66 77
165 152 154 164 217 264 274 252 180 165 226 205 184 193 197 184 135 262 215 187 188 190 186 192 195 197 206 216 216 185 163 142 140 140 133 125 123 119 114 109 98 83 82 82
125 123 142 174 203 238 251 239 151 108 261 244 174 188 189 147 171 248 217 184 184 187 187 195 198 185 190 211 191 172 174 161 165 160 148 130 124 129 139 146 139 116 109 107
120 132 183 215 236 258 250 181 117 154 234 221 186 193 184 186 207 216 175 174 180 186 196 192 185 182 196 191 166 171 174 178 171 151 133 122 124 142 152 142 136 126 115 108
187 188 214 207 233 257 239 165 178 210 206 200 203 207 199 200 191 170 167 174 178 187 197 188 177 191 198 175 159 167 177 169 146 137 133 131 131 143 133 129 121 125 128 122
197 185 191 200 224 247 239 213 211 179 186 202 203 205 175 167 174 175 178 181 185 190 192 180 172 180 190 176 161 166 175 156 141 138 144 145 132 116 115 130 130 120 130 132
269 220 194 237 252 261 263 254 222 198 198 201 196 187 169 175 182 181 181 183 186 189 186 171 162 169 185 182 170 171 167 155 144 149 155 150 142 132 113 105 119 126 137 139
240 264 249 251 265 278 275 266 243 222 216 206 198 187 182 179 179 181 182 183 183 181 176 166 167 175 185 181 176 174 164 152 152 160 165 162 162 156 140 116 121 148 170 174
224 225 227 242 239 227 248 259 262 236 219 208 200 199 189 180 177 177 181 182 178 175 170 169 172 177 180 176 179 179 171 160 157 165 173 173 171 170 161 150 104 42 124 141